Content
SEND FEEDBACK

Daily
Averages
Monthly
Summary
Canada

QUEBEC CITY, QUEBEC


Home > North America > Canada > Quebec
Elevation: 239 feet     Latitude: 46 48N     Longitude: 071 23W

WEATHER
 
SELECT A DAY
Number of Records: 191,965;   Date Range: 6/30/96 - 7/20/14
 
SHARE

PRINT THIS DATA

[ ← Previous Day ]
WEATHER ALMANAC - JUNE 24, 2013
[ Next Day → ]
[ °C ]   °F
We're sorry. There is no daily almanac available for Quebec City, Quebec on June 24, 2013.
WEATHER BY HOUR - JUNE 24, 2013
[ °C ]   °F
Local TimeTemperatureDewpointHumidityBarometerVisibilityWind DirectionWind SpeedGust SpeedPrecipitationEventsConditions
1:00 AM68.0 °F64.4 °F88 %29.91 in15.0 miSW (230°)5.8 mphOvercast
2:00 AM69.0 °F65.0 °F84 %29.88 inWSW (240°)4.6 mph
2:00 AM68.0 °F64.4 °F88 %29.90 in15.0 miSW (230°)6.9 mphOvercast
3:00 AM68.0 °F64.4 °F88 %29.89 in10.0 miSSW (210°)5.8 mphOvercast
4:00 AM68.0 °F64.4 °F88 %29.88 in10.0 miSW (220°)3.5 mphMostly Cloudy
4:47 AM68.0 °F0.0 °F2.0 miSSW (210°)4.6 mphOvercast
5:00 AM68.0 °F66.2 °F94 %29.88 in2.0 miSSW (200°)4.6 mphOvercast
5:00 AM67.0 °F65.0 °F92 %29.86 inSSW (210°)2.3 mph
5:24 AM68.0 °F0.0 °F1.5 miSW (220°)8.1 mphOvercast
5:38 AM68.0 °F0.0 °F1.5 miSW (230°)9.2 mphRainLight Rain Showers
6:00 AM68.0 °F66.2 °F94 %29.88 in1.5 miSW (230°)9.2 mphOvercast
6:32 AM68.0 °F0.0 °F1.0 miWSW (250°)11.5 mphOvercast
7:00 AM68.0 °F66.2 °F94 %29.89 in0.8 miWSW (240°)9.2 mphOvercast
7:37 AM68.0 °F0.0 °F1.5 miSSW (210°)4.6 mphOvercast
7:45 AM68.0 °F0.0 °F1.8 miSSW (210°)4.6 mphOvercast
7:52 AM69.8 °F0.0 °F1.8 miSouth (190°)6.9 mphMostly Cloudy
8:00 AM70.0 °F67.0 °F88 %29.87 inSouth (190°)5.8 mph
8:00 AM69.8 °F68.0 °F94 %29.90 in1.8 miSouth (180°)6.9 mphMostly Cloudy
8:16 AM69.8 °F0.0 °F3.0 miSSW (200°)6.9 mphMostly Cloudy
8:23 AM71.6 °F0.0 °F4.0 miSSW (210°)9.2 mphMostly Cloudy
8:46 AM73.4 °F0.0 °F8.0 miSSW (200°)8.1 mphScattered Clouds
9:00 AM73.4 °F68.0 °F83 %29.88 in10.0 miSSW (200°)10.4 mphScattered Clouds
10:00 AM75.2 °F68.0 °F78 %29.88 in10.0 miSW (220°)16.1 mphPartly Cloudy
11:00 AM78.8 °F68.0 °F69 %29.88 in15.0 miWSW (250°)12.7 mph18.4 mphScattered Clouds
11:00 AM77.0 °F67.0 °F65 %29.86 inWSW (240°)10.4 mph
12:00 PM77.0 °F66.2 °F69 %29.87 in15.0 miWSW (240°)15.0 mphMostly Cloudy
1:00 PM77.0 °F66.2 °F69 %29.86 in25.0 miSW (220°)17.3 mphMostly Cloudy
2:00 PM78.8 °F66.2 °F65 %29.85 in25.0 miWSW (250°)15.0 mphMostly Cloudy
3:00 PM82.4 °F68.0 °F62 %29.83 in25.0 miWSW (240°)13.8 mphOvercast
4:00 PM80.6 °F68.0 °F65 %29.79 in25.0 miSW (220°)11.5 mph18.4 mphOvercast
4:52 PM78.8 °F0.0 °F25.0 miWSW (240°)9.2 mphThunderstormThunderstorm
5:00 PM78.0 °F69.0 °F68 %29.74 inWSW (240°)3.5 mph
5:00 PM78.8 °F69.8 °F74 %29.77 in25.0 miSW (230°)5.8 mphRain-ThunderstormLight Thunderstorms and Rain
5:22 PM77.0 °F0.0 °F15.0 miWest (270°)3.5 mphMostly Cloudy
5:33 PM77.0 °F0.0 °F15.0 miNW (310°)3.5 mphRain-ThunderstormLight Thunderstorms and Rain
6:00 PM77.0 °F73.4 °F89 %29.75 in6.0 miWSW (250°)2.3 mphRain-ThunderstormLight Thunderstorms and Rain
6:23 PM73.4 °F0.0 °F2.0 miNW (310°)21.9 mph28.8 mphRain-ThunderstormHeavy Thunderstorms and Rain
6:32 PM69.8 °F0.0 °F2.0 miWSW (250°)19.6 mph57.5 mphRain-ThunderstormHeavy Thunderstorms and Rain
6:46 PM69.8 °F0.0 °F10.0 miSSW (210°)20.7 mph29.9 mphRain-ThunderstormLight Thunderstorms and Rain
7:00 PM71.6 °F68.0 °F88 %29.76 in15.0 miWest (270°)11.5 mphThunderstormThunderstorm
7:20 PM69.8 °F0.0 °F15.0 miNW (320°)5.8 mphMostly Cloudy
8:00 PM71.6 °F68.0 °F88 %29.76 in30.0 miWSW (250°)2.3 mphMostly Cloudy
8:00 PM71.0 °F69.0 °F89 %29.73 inWNW (300°)2.3 mph
9:00 PM69.8 °F68.0 °F94 %29.78 in30.0 miSSE (160°)5.8 mphMostly Cloudy
10:00 PM69.8 °F64.4 °F83 %29.79 in15.0 miWSW (240°)13.8 mphPartly Cloudy
11:00 PM68.0 °F64.0 °F82 %29.78 inSSW (200°)4.6 mph
11:00 PM68.0 °F64.4 °F88 %29.80 in15.0 miSSW (200°)5.8 mphPartly Cloudy
Hourly data recorded from CYQB, located miles away from Quebec City, Quebec







STORIES FROM OUR PARTNERS